Regional Weather Roundup
Issued by NWS

Home | Current Version | Previous Version | Text Only | Print | Product List | Glossary Off
Versions: 1 2 3 4 5 6 7 8 9 10 11 12 13 14 15 16 17 18 19 20 21 22 23 24 25 26 27 28 29 30 31 32 33 34 35 36 37 38 39 40 41 42 43 44 45 46 47 48 49 50

000
ASUS45 KCYS 260810
RWRWY

WYOMING REGIONAL WEATHER ROUNDUP
NATIONAL WEATHER SERVICE CHEYENNE WY
200 AM MDT TUE JUL 26 2016

NOTE:  "FAIR" INDICATES FEW OR NO CLOUDS BELOW 12,000 FEET
WITH NO SIGNIFICANT WEATHER AND/OR OBSTRUCTIONS TO VISIBILITY.

WYZ001-260900-
YELLOWSTONE NATIONAL PARK

CITY           SKY/WX    TMP DP  RH WIND       PRES   REMARKS
LK YELLOWSTONE   N/A     46  33  60 CALM      30.35F
W YELLOWSTONE  NOT AVBL

$$
WYZ002>013-054>058-071-098>099-260900-
NORTHERN WYOMING

CITY           SKY/WX    TMP DP  RH WIND       PRES   REMARKS
JACKSON        FAIR      48  30  49 NE5       30.24S
CODY           FAIR      72  39  30 NW12      30.18F
GREYBULL       FAIR      79  43  27 NW22G31   29.98R
WORLAND        FAIR      77  38  24 NW7       30.03R
SHERIDAN       FAIR      76  45  33 NW20G26   30.05R
BUFFALO        FAIR      74  40  29 NW21      30.10R
GILLETTE       FAIR      74  57  55 S14       30.02S
HULETT         FAIR      79  57  47 S12       30.05F
NEWCASTLE      FAIR      75  55  50 SE13G20   30.07F

$$
WYZ014>020-022>026-101>103-260900-
CENTRAL WYOMING

CITY           SKY/WX    TMP DP  RH WIND       PRES   REMARKS
BIG PINEY      FAIR      50  28  42 NW12      30.28F
PINEDALE       FAIR      52  30  43 NW9       30.31R
DUBOIS         PTSUNNY   54  23  30 W10       30.29S HAZE
LANDER         FAIR      71  30  21 SW6       30.12S
RIVERTON       FAIR      70  30  22 NW12      30.11F
CASPER         FAIR      62  41  46 CALM      30.09S
DOUGLAS          N/A    N/A N/A N/A MISG      30.09S

$$
WYZ021-027>030-104>119-260900-
SOUTHERN WYOMING

CITY           SKY/WX    TMP DP  RH WIND       PRES   REMARKS
EVANSTON       FAIR      66  34  30 SE3       30.30S
KEMMERER         N/A     55  30  38 NW5       30.31R
FORT BRIDGER   FAIR      66  30  26 W10       30.30S
ROCK SPRINGS   FAIR      65  29  25 W5        30.25R
DIXON          FAIR      60  38  43 E7        30.28S
RAWLINS        FAIR      69  28  21 SW8       30.25S
SARATOGA       FAIR      57  34  41 N5        30.28F
LARAMIE        FAIR      58  47  66 S10       30.28F
CHEYENNE       FAIR      61  54  77 W9        30.20F
TORRINGTON     FAIR      67  62  84 E8        30.07F
PINE BLUFFS    FAIR      63  59  88 S6        30.15S

$$



USA.gov is the U.S. government's official web portal to all federal, state and local government web resources and services.